Weather in Ozerki

Russia / Belgorod Oblast     51°15′04″N   38°01′00″E
temp.,
°C
wind,
m/s
gust,
m/s
humid.,
%
clouds,
%
prec.,
mm/h
press.,
hPa
HPBL,
m
1 july, fri
fri100:00+15nnw227938 0.0 101628
03:00+13nnw3486100 0.0 101663
06:00+15nw37835 0.0 1015172
09:00+20nnw69630 0.0 1015673
12:00+23n7105033 0.0 10142388
15:00+22n910492 0.0 10142243
18:00+19nne79580 0.0 10161490
21:00+12n35723 0.0 101883
2 july, sat
sat200:00+10nne410650 0.0 1020321
03:00+7n310870 0.0 1020250
06:00+9n512800 0.0 1021350
09:00+15n811620 0.0 1020859
12:00+20nne8105610 0.0 10201671
15:00+21n810490 0.0 10191844
18:00+21n610590 0.0 10191607
21:00+15nnw49800 0.0 1019144
3 july, sun
sun300:00+13nw410825 0.0 1019167
03:00+12nw411830 0.0 1018184
06:00+13nw512775 0.0 1018250
09:00+18nnw5107095 0.0 1018444
12:00+23nw695366 0.0 1017870
15:00+26nnw79535 0.0 10151549
18:00+24nw5868100 0.3 1015718
21:00+19nnw4108896 0.6 1016176
4 july, mon
mon400:00+17nw3592100 0.0 101691
03:00+16nw359291 0.0 101674
06:00+17nnw26910 0.0 1016177
09:00+23ne34680 0.0 1017610
12:00+25ne34540 0.0 10171342
15:00+27ne354812 0.0 10172198
18:00+25ne45571 0.0 1017534
21:00+19ese34780 0.0 101855
5 july, tue
tue500:00+17sse22770 0.0 101914
03:00+16ssw22815 0.0 102011
06:00+18ssw12773 0.0 102064
09:00+23ssw33605 0.0 1020521
12:00+26s33515 0.0 10191378
15:00+27ssw335075 0.0 10192004
18:00+23ssw2470100 0.0 1018106
21:00+21s337346 0.0 101832